International Skating Union - Official Site

Essent ISU World Cup Heerenveen
March 2-4, 2012

Draw | Lap Times | Index | World Cup

Referee: Jacques  DE KONING  (NED)
Starter: Janny  SMEGEN  (NED)
StartTime: EndTime: Air Temp: Ice Temp: Humidity:
13:30 14:04
Result 5000m Ladies Division B
Rankings as of Mar 4 2012 4:31PM
Rank: No.: Name: Nation: Time: Behind: Points:
1 66 Annouk  van der WEIJDEN NED NED 7:07.28200m - 20.10 - (20.1)
600m - 52.49 - (32.3)
1000m - 1:26.18 - (33.6)
1400m - 1:59.91 - (33.7)
1800m - 2:33.85 - (33.9)
2200m - 3:07.72 - (33.8)
2600m - 3:41.73 - (34.0)
3000m - 4:15.85 - (34.1)
3400m - 4:50.00 - (34.1)
3800m - 5:24.35 - (34.3)
4200m - 5:58.90 - (34.5)
4600m - 6:33.04 - (34.1)
5000m - 7:07.28 - (34.2)
35
2 63 Jorien  VOORHUIS NED NED 7:10.92200m - 7:10.92 - (35.0)
600m - 52.40 - (32.2)
1000m - 1:25.79 - (33.3)
1400m - 1:59.67 - (33.8)
1800m - 2:33.59 - (33.9)
2200m - 3:07.71 - (34.1)
2600m - 3:42.24 - (34.5)
3000m - 4:16.93 - (34.6)
3400m - 4:51.38 - (34.4)
3800m - 5:25.97 - (34.5)
4200m - 6:00.82 - (34.8)
4600m - 6:35.85 - (35.0)
5000m - 7:10.92 - (35.0)
3.64 30
3 31 Bente  KRAUS GER GER 7:13.32200m - 21.32 - (21.3)
600m - 53.91 - (32.5)
1000m - 1:26.86 - (32.9)
1400m - 2:00.33 - (33.4)
1800m - 2:34.13 - (33.8)
2200m - 3:08.61 - (34.4)
2600m - 3:43.35 - (34.7)
3000m - 4:17.73 - (34.3)
3400m - 4:52.49 - (34.7)
3800m - 5:27.74 - (35.2)
4200m - 6:03.10 - (35.3)
4600m - 6:38.33 - (35.2)
5000m - 7:13.32 - (34.9)
6.04 25
4 42 Ayaka  KIKUCHI JPN JPN 7:18.03200m - 21.10 - (21.1)
600m - 54.83 - (33.7)
1000m - 1:29.11 - (34.2)
1400m - 2:03.82 - (34.7)
1800m - 2:38.40 - (34.5)
2200m - 3:13.05 - (34.6)
2600m - 3:47.76 - (34.7)
3000m - 4:22.60 - (34.8)
3400m - 4:57.33 - (34.7)
3800m - 5:32.41 - (35.0)
4200m - 6:07.52 - (35.1)
4600m - 6:42.84 - (35.3)
5000m - 7:18.03 - (35.1)
10.75 21
5 33 Isabell  OST GER GER 7:18.75200m - 7:18.74 - (37.3)
600m - 54.24 - (33.1)
1000m - 1:27.79 - (33.5)
1400m - 2:01.32 - (33.5)
1800m - 2:35.06 - (33.7)
2200m - 3:08.73 - (33.6)
2600m - 3:42.94 - (34.2)
3000m - 4:17.50 - (34.5)
3400m - 4:52.64 - (35.1)
3800m - 5:28.33 - (35.6)
4200m - 6:04.62 - (36.2)
4600m - 6:41.42 - (36.8)
5000m - 7:18.75 - (37.3)
11.47 18
6 70 Mari  HEMMER NOR NOR 7:18.76200m - 21.06 - (21.0)
600m - 55.24 - (34.1)
1000m - 1:29.60 - (34.3)
1400m - 2:04.00 - (34.4)
1800m - 2:38.16 - (34.1)
2200m - 3:12.72 - (34.5)
2600m - 3:47.62 - (34.9)
3000m - 4:22.57 - (34.9)
3400m - 4:57.75 - (35.1)
3800m - 5:32.96 - (35.2)
4200m - 6:08.51 - (35.5)
4600m - 6:43.93 - (35.4)
5000m - 7:18.76 - (34.8)
11.48 15
7 50 Carlijn  ACHTEREEKTE NED NED 7:19.70200m - 21.26 - (21.2)
600m - 54.61 - (33.3)
1000m - 1:28.79 - (34.1)
1400m - 2:03.14 - (34.3)
1800m - 2:37.74 - (34.6)
2200m - 3:12.41 - (34.6)
2600m - 3:47.27 - (34.8)
3000m - 4:22.02 - (34.7)
3400m - 4:57.11 - (35.0)
3800m - 5:32.26 - (35.1)
4200m - 6:07.80 - (35.5)
4600m - 6:43.71 - (35.9)
5000m - 7:19.70 - (35.9)
12.42 13
8 89 Jilleanne  ROOKARD USA USA 7:19.82200m - 20.19 - (20.1)
600m - 52.41 - (32.2)
1000m - 1:25.38 - (32.9)
1400m - 1:59.78 - (34.4)
1800m - 2:33.83 - (34.0)
2200m - 3:08.54 - (34.7)
2600m - 3:43.48 - (34.9)
3000m - 4:18.49 - (35.0)
3400m - 4:54.03 - (35.5)
3800m - 5:29.85 - (35.8)
4200m - 6:06.12 - (36.2)
4600m - 6:42.67 - (36.5)
5000m - 7:19.82 - (37.1)
12.54 11
9 32 Kathrin  MATTSCHERODT GER GER 7:21.30200m - 21.50 - (21.5)
600m - 55.66 - (34.1)
1000m - 1:30.03 - (34.3)
1400m - 2:04.47 - (34.4)
1800m - 2:39.18 - (34.7)
2200m - 3:14.12 - (34.9)
2600m - 3:49.48 - (35.3)
3000m - 4:24.95 - (35.4)
3400m - 5:00.29 - (35.3)
3800m - 5:35.61 - (35.3)
4200m - 6:11.01 - (35.4)
4600m - 6:46.36 - (35.3)
5000m - 7:21.30 - (34.9)
14.02 10
10 2 Anna  ROKITA AUT AUT 7:23.17200m - 21.35 - (21.3)
600m - 54.82 - (33.4)
1000m - 1:28.94 - (34.1)
1400m - 2:03.83 - (34.8)
1800m - 2:38.67 - (34.8)
2200m - 3:13.93 - (35.2)
2600m - 3:49.13 - (35.2)
3000m - 4:24.37 - (35.2)
3400m - 4:59.72 - (35.3)
3800m - 5:35.45 - (35.7)
4200m - 6:11.17 - (35.7)
4600m - 6:47.14 - (35.9)
5000m - 7:23.17 - (36.0)
15.89 9
11 72 Natalia  CZERWONKA POL POL 7:24.66200m - 21.32 - (21.3)
600m - 55.62 - (34.3)
1000m - 1:29.43 - (33.8)
1400m - 2:03.57 - (34.1)
1800m - 2:37.57 - (34.0)
2200m - 3:11.85 - (34.2)
2600m - 3:46.36 - (34.5)
3000m - 4:21.19 - (34.8)
3400m - 4:56.27 - (35.0)
3800m - 5:32.36 - (36.0)
4200m - 6:09.46 - (37.1)
4600m - 6:46.68 - (37.2)
5000m - 7:24.66 - (37.9)
17.38 8
12 75 Luiza  ZLOTKOWSKA POL POL 7:26.36200m - 21.40 - (21.4)
600m - 54.74 - (33.3)
1000m - 1:28.81 - (34.0)
1400m - 2:03.51 - (34.7)
1800m - 2:38.55 - (35.0)
2200m - 3:13.48 - (34.9)
2600m - 3:48.70 - (35.2)
3000m - 4:24.17 - (35.4)
3400m - 5:00.02 - (35.8)
3800m - 5:36.44 - (36.4)
4200m - 6:13.48 - (37.0)
4600m - 6:50.78 - (37.3)
5000m - 7:26.36 - (35.5)
19.08 7
13 87 Maria  LAMB USA USA 7:26.68200m - 20.98 - (20.9)
600m - 54.10 - (33.1)
1000m - 1:27.97 - (33.8)
1400m - 2:02.94 - (34.9)
1800m - 2:38.09 - (35.1)
2200m - 3:12.79 - (34.7)
2600m - 3:47.40 - (34.6)
3000m - 4:22.65 - (35.2)
3400m - 4:58.49 - (35.8)
3800m - 5:34.59 - (36.1)
4200m - 6:10.91 - (36.3)
4600m - 6:48.32 - (37.4)
5000m - 7:26.68 - (38.3)
19.40 6
14 11 Nicole  GARRIDO CAN CAN 7:27.04200m - 21.39 - (21.3)
600m - 55.62 - (34.2)
1000m - 1:30.33 - (34.7)
1400m - 2:04.94 - (34.6)
1800m - 2:39.87 - (34.9)
2200m - 3:15.28 - (35.4)
2600m - 3:50.54 - (35.2)
3000m - 4:25.92 - (35.3)
3400m - 5:01.61 - (35.6)
3800m - 5:37.56 - (35.9)
4200m - 6:13.76 - (36.2)
4600m - 6:50.49 - (36.7)
5000m - 7:27.04 - (36.5)
19.76 5
15 4 Jelena  PEETERS BEL BEL 7:29.45200m - 20.72 - (20.7)
600m - 54.82 - (34.1)
1000m - 1:29.78 - (34.9)
1400m - 2:04.76 - (34.9)
1800m - 2:39.52 - (34.7)
2200m - 3:14.58 - (35.0)
2600m - 3:49.83 - (35.2)
3000m - 4:25.47 - (35.6)
3400m - 5:01.86 - (36.3)
3800m - 5:38.35 - (36.4)
4200m - 6:15.03 - (36.6)
4600m - 6:52.14 - (37.1)
5000m - 7:29.45 - (37.3)
22.17 4
16 15 Victoria  SPENCE CAN CAN 7:36.99200m - 21.85 - (21.8)
600m - 57.09 - (35.2)
1000m - 1:32.73 - (35.6)
1400m - 2:09.06 - (36.3)
1800m - 2:45.08 - (36.0)
2200m - 3:21.41 - (36.3)
2600m - 3:57.59 - (36.1)
3000m - 4:34.01 - (36.4)
3400m - 5:10.35 - (36.3)
3800m - 5:46.82 - (36.4)
4200m - 6:23.38 - (36.5)
4600m - 7:00.43 - (37.0)
5000m - 7:36.99 - (36.5)
29.71 3